Hourly Data Report for July 22, 2017

QUALICUM BEACH AIRPORT
BRITISH COLUMBIA

49°20'14.000" N
124°23'38.000" W
58.20 m
1026562
71766
VOQ

Download Data

Hourly Data (July 2017)
Hourly Data Report for July 22, 2017
TIME
LST
Temp Definition
°C
Dew Point Definition
°C
Rel Hum Definition
%
Precip. Amount Definition
mm

Wind Dir Definition
10's deg

Wind Spd Definition
km/h
Visibility Definition
km
Stn Press Definition
kPa
Hmdx Definition


Wind Chill Definition


Weather Definition


00:00 15.1 14.5 96 0.0 26 1   101.31     LegendNANA
01:00 15.6 14.5 94 0.0 12 11   101.30     LegendNANA
02:00 15.6 14.6 94 0.0 15 6   101.30     LegendNANA
03:00 15.7 14.1 90 0.0 14 10   101.29     LegendNANA
04:00 15.8 14.0 89 0.0 13 9   101.30     LegendNANA
05:00 15.8 14.2 91 0.0 14 13   101.31     LegendNANA
06:00 16.1 14.5 90 0.0 12 11   101.34     LegendNANA
07:00 17.2 14.8 86 0.0 12 9   101.40     LegendNANA
08:00 17.8 14.6 82 0.0 11 12   101.42     LegendNANA
09:00 18.7 15.5 82 0.0 9 16   101.41     LegendNANA
10:00 18.3 15.0 81 0.0 10 18   101.41     LegendNANA
11:00 17.8 15.1 84 0.0 9 18   101.45     LegendNANA
12:00 18.6 14.9 79 0.0 9 14   101.47     LegendNANA
13:00 18.2 14.8 81 0.0 10 15   101.47     LegendNANA
14:00 19.7 15.1 75 0.0 9 12   101.45     LegendNANA
15:00 20.4 15.2 72 0.0 9 13   101.40     LegendNANA
16:00 19.6 15.6 77 0.0 8 11   101.38     LegendNANA
17:00 20.2 15.4 74 0.0 9 9   101.33     LegendNANA
18:00 18.9 15.6 81 0.0 10 6   101.31     LegendNANA
19:00 19.3 15.5 79 0.0 9 2   101.30     LegendNANA
20:00 18.1 15.2 83 0.0 0 1   101.28     LegendNANA
21:00 17.2 15.0 87 0.0 3 3   101.30     LegendNANA
22:00 16.9 15.1 89 0.0 0 1   101.28     LegendNANA
23:00 16.3 14.8 91 0.0   0   101.27     LegendNANA

Notes on Data Quality.

Legend

  • E = Estimated
  • M = Missing
  • NA = Not Available*
  • [empty] = Indicates an unobserved value
Date modified: